Regional Weather Roundup
Issued by NWS

Home | Current Version | Previous Version | Text Only | Print | Product List | Glossary Off
Versions: 1 2 3 4 5 6 7 8 9 10 11 12 13 14 15 16 17 18 19 20 21 22 23 24 25 26 27 28 29 30 31 32 33 34 35 36 37 38 39 40 41 42 43 44 45 46 47 48 49 50

000
ASUS45 KCYS 271610
RWRWY

WYOMING REGIONAL WEATHER ROUNDUP
NATIONAL WEATHER SERVICE CHEYENNE WY
900 AM MST SAT DEC 27 2014

NOTE:  "FAIR" INDICATES FEW OR NO CLOUDS BELOW 12,000 FEET
WITH NO SIGNIFICANT WEATHER AND/OR OBSTRUCTIONS TO VISIBILITY.

WYZ001-271700-
YELLOWSTONE NATIONAL PARK

CITY           SKY/WX    TMP DP  RH WIND       PRES   REMARKS
LK YELLOWSTONE   N/A      6   2  83 VRB3      30.10R
W YELLOWSTONE  NOT AVBL

$$
WYZ002>013-054>058-071-098>099-271700-
NORTHERN WYOMING

CITY           SKY/WX    TMP DP  RH WIND       PRES   REMARKS
JACKSON        NOT AVBL
CODY           CLOUDY    23   5  46 W9G23     30.03R WCI  13
GREYBULL       FOG        1  -1  91 CALM      30.15R VSB 1/4
WORLAND        FOG       -6  -9  86 S6        30.13R VSB 3/4 WCI -19
SHERIDAN       FAIR       2  -3  80 N3        30.06R
BUFFALO        FAIR      12   1  61 W7        30.01R WCI   1
GILLETTE       FAIR      14   8  77 SE6       30.05R WCI   5
HULETT           N/A    N/A N/A N/A MISG        N/A
NEWCASTLE      CLOUDY    14  12  92 CALM      30.11S

$$
WYZ014>020-022>026-101>103-271700-
CENTRAL WYOMING

CITY           SKY/WX    TMP DP  RH WIND       PRES   REMARKS
BIG PINEY      FAIR     -10 -12  91 CALM      30.15R
PINEDALE       FAIR     N/A N/A N/A W6        30.15R
DUBOIS         NOT AVBL
LANDER         FAIR       3  -1  83 SE6       30.05S WCI  -8
RIVERTON       FAIR       5   1  83 SW9       30.06S WCI  -9
CASPER         FAIR      11   4  73 SW20      30.07R WCI  -7
DOUGLAS        FAIR       2   1  96 CALM      30.09S

$$
WYZ021-027>030-104>119-271700-
SOUTHERN WYOMING

CITY           SKY/WX    TMP DP  RH WIND       PRES   REMARKS
EVANSTON       FAIR       6   3  87 SW12      30.20R WCI  -9
KEMMERER       FAIR       3   1  92 W9        30.16R WCI -11
FORT BRIDGER   FAIR       8   0  71 W8        30.21R WCI  -5
ROCK SPRINGS   FAIR       6   1  80 SW18      30.16R WCI -13
DIXON          LGT SNOW  -2  -6  82 CALM      30.24R
RAWLINS        FAIR      10   3  73 SW14      30.12R WCI  -6
SARATOGA       FAIR       0  -6  78 MISG      30.14R
LARAMIE        FAIR      -1  -4  87 SW20      30.03S WCI -23
CHEYENNE       FAIR      14   1  56 W18       30.07R WCI  -3
TORRINGTON     FAIR       4   3  96 CALM      30.15R
PINE BLUFFS    FAIR       9   0  66 CALM      30.13S

$$



USA.gov is the U.S. government's official web portal to all federal, state and local government web resources and services.